Theta_e
338 340 342 341 342 339 336 336 338 339 339 338 338 335 335 333 334 335 334 331 330 331 330 330 333 334 332 329 333 333 336 338 340 336 334 334 336 339 341 341 340 340 338 337 337 335 334 334 333 333 331 330 330 329 329 330 330 332 331 334 337 336 335 333 331 329 328 328 327 326 325 326 327 327 326 326 326 325 325 325 325 324 324 324 324
338 341 339 339 340 339 338 337 337 340 341 339 338 336 335 333 332 333 331 330 328 329 330 329 329 332 331 328 331 329 335 334 337 336 336 335 334 339 341 340 340 341 340 338 338 336 335 334 335 334 332 331 331 330 329 329 329 330 331 334 335 336 335 334 332 330 329 328 327 327 327 327 327 326 325 325 325 324 323 323 324 324 324 323 323
341 340 338 339 338 336 335 338 338 338 340 339 340 336 337 338 336 334 332 334 330 330 329 327 329 329 329 328 327 328 331 333 334 336 334 336 334 336 339 341 341 341 341 340 339 337 337 336 335 335 333 333 333 331 329 330 329 329 330 331 334 334 336 335 333 331 330 329 328 326 326 326 325 326 326 325 325 325 324 323 323 323 323 323 323
338 336 338 337 335 335 336 336 335 338 339 338 338 338 337 334 333 339 333 334 330 328 332 330 329 329 329 327 327 326 327 333 332 333 333 335 335 333 337 339 341 341 341 341 341 340 337 337 336 336 335 333 333 332 331 330 330 327 330 330 334 332 334 335 334 332 330 330 328 327 326 326 326 325 326 325 325 324 324 324 323 323 323 323 323
337 334 334 336 336 336 335 334 335 339 339 339 340 338 336 339 336 335 332 331 329 327 328 333 327 328 328 326 326 325 325 329 330 333 333 334 335 334 335 336 338 340 339 341 341 341 340 338 337 336 336 334 334 334 332 331 331 330 329 330 332 333 333 335 334 333 331 330 329 328 326 327 325 325 325 325 325 324 324 323 323 322 322 323 322
336 334 335 334 334 333 336 336 338 339 340 342 339 336 338 337 332 333 331 325 326 327 327 328 327 328 328 329 330 332 329 325 329 331 332 332 333 335 334 333 334 336 338 341 340 340 339 340 338 337 337 336 335 335 333 333 330 331 330 330 331 333 332 334 335 334 333 331 330 329 327 327 326 325 324 324 325 324 324 324 323 322 322 322 321
338 337 335 334 335 334 337 337 338 337 335 338 338 337 336 335 331 329 330 326 323 329 325 326 327 325 330 334 329 328 330 329 330 331 331 332 335 333 336 334 333 334 335 337 339 339 338 340 340 339 338 337 337 335 335 334 331 332 332 331 331 332 332 333 334 335 334 333 330 330 329 327 326 324 324 324 324 324 324 324 323 322 322 321 321
337 337 336 335 335 335 335 336 337 336 334 334 337 336 336 336 332 331 330 323 323 322 324 324 327 329 332 333 332 331 330 330 331 329 328 330 330 333 335 336 335 333 335 334 336 337 338 338 339 339 339 338 337 337 336 336 335 334 334 332 332 332 332 333 333 335 334 333 332 331 329 328 325 325 324 324 324 324 324 324 323 322 321 321 321
336 334 334 334 338 336 336 336 335 338 337 337 336 338 337 334 337 333 333 331 328 324 326 326 328 331 333 331 332 332 332 331 330 331 330 331 332 329 332 333 336 342 335 333 334 335 337 338 339 338 338 339 339 337 337 337 336 336 336 334 332 331 331 332 333 334 336 335 333 332 330 329 327 326 324 324 323 324 324 323 323 322 321 321 321
337 337 334 334 334 336 335 335 335 335 334 334 334 336 335 334 334 337 332 330 330 329 328 329 329 332 332 330 332 332 332 332 332 333 330 327 331 333 331 330 333 335 336 335 334 334 335 336 338 338 338 336 336 339 338 338 338 337 337 336 334 333 332 332 333 333 334 336 334 333 331 329 328 327 325 324 324 324 323 323 323 322 321 321 321
339 339 336 336 335 334 333 334 334 333 331 331 332 334 334 334 332 332 332 331 330 329 330 329 327 329 328 332 331 329 329 332 331 331 330 330 329 329 328 333 331 332 333 334 335 335 334 333 335 336 336 337 337 339 338 339 338 338 337 338 337 336 335 334 332 333 334 335 336 334 332 331 329 328 326 325 324 323 323 323 322 323 322 321 321
336 336 337 336 335 336 337 335 333 332 331 329 330 333 333 331 329 329 328 329 329 332 332 330 329 328 330 330 332 332 328 327 325 328 330 329 329 330 330 328 332 332 334 332 332 333 335 332 333 333 334 336 336 337 338 337 338 339 338 337 338 337 336 336 334 333 333 333 336 335 334 331 330 328 327 326 325 324 324 323 322 322 322 321 320
331 336 336 337 336 335 335 331 331 332 332 329 330 333 334 333 332 328 327 325 327 331 330 329 326 326 331 330 332 335 329 325 322 323 326 331 332 331 331 330 330 331 332 331 331 332 336 334 332 332 332 333 335 336 336 335 336 338 339 338 338 338 337 337 337 334 334 334 334 336 334 332 330 329 328 327 326 326 325 324 322 322 321 321 320
335 333 331 333 333 335 334 333 332 330 331 331 330 333 333 333 332 330 329 328 326 329 329 327 323 323 322 322 325 331 329 324 323 323 323 329 332 331 331 331 330 331 331 330 330 330 332 336 335 334 334 334 333 333 335 335 335 337 339 340 339 338 337 338 338 337 335 334 333 334 335 333 331 330 330 329 327 327 326 325 323 323 321 321 320
330 331 333 334 332 334 333 333 332 333 333 331 332 332 332 332 331 329 327 329 327 329 329 329 323 326 324 320 318 318 324 328 327 329 332 332 333 333 333 330 330 332 331 330 329 330 329 330 335 335 335 335 334 332 332 334 335 335 337 338 340 340 340 338 339 339 338 336 334 333 335 335 332 331 331 330 328 328 327 325 324 323 323 321 321
327 332 327 328 331 334 331 332 331 332 331 330 330 330 330 330 331 330 328 324 326 325 329 329 327 324 316 317 318 318 315 319 324 329 334 335 333 331 331 330 331 330 331 332 332 331 330 329 329 331 332 332 335 333 332 333 334 335 334 334 336 340 341 340 338 340 340 338 337 334 335 336 334 332 332 331 330 328 327 326 325 323 324 323 322
330 327 326 329 329 328 331 331 332 332 331 330 329 329 329 329 329 329 327 326 324 325 326 329 328 329 324 319 317 315 316 320 322 326 332 331 332 332 332 331 331 331 329 332 334 332 330 330 331 331 331 333 334 335 334 332 332 335 334 335 335 336 339 341 341 340 340 340 339 338 335 336 336 333 332 331 330 329 328 327 326 324 324 324 323
326 326 325 326 329 332 329 330 330 332 335 331 329 329 328 329 330 329 328 326 326 325 323 327 328 329 328 326 323 317 318 321 320 315 327 330 332 333 333 332 331 331 332 333 333 333 334 334 334 333 332 331 331 331 335 335 335 333 334 334 331 333 334 337 341 341 341 340 340 340 339 338 337 334 333 332 331 330 329 328 327 325 325 325 324
329 327 328 329 327 327 329 328 329 327 328 329 326 325 324 325 330 328 328 327 327 323 322 323 326 327 326 327 328 328 328 321 317 319 315 324 328 327 329 332 333 332 331 332 332 333 332 333 334 335 335 333 332 331 331 332 335 334 336 334 330 327 326 327 335 340 341 341 340 339 339 339 338 335 334 333 331 331 330 329 328 327 326 325 324
330 329 328 326 328 328 327 326 326 325 324 321 322 323 324 325 326 327 328 328 326 323 324 326 322 322 326 327 327 328 328 326 324 319 316 314 318 326 329 329 330 331 331 332 331 331 328 330 332 335 335 336 334 331 331 331 332 335 335 330 328 326 325 324 324 325 336 341 341 340 339 339 339 336 334 333 332 331 330 330 329 328 328 327 325
326 326 326 326 325 324 323 322 319 319 319 318 320 322 323 324 324 324 323 324 326 327 325 324 324 322 322 324 325 326 325 326 324 321 316 315 316 319 321 328 328 329 330 332 333 334 332 332 334 332 330 331 334 336 335 334 333 333 332 327 326 325 324 323 320 319 320 332 341 342 341 340 339 338 335 334 333 332 331 330 329 329 328 327 327
325 323 323 321 324 323 321 321 322 320 319 319 320 322 322 321 322 323 324 323 322 321 321 322 321 321 322 322 321 323 322 322 320 319 318 318 314 315 320 320 321 327 330 331 331 333 336 334 333 334 334 334 335 333 334 335 336 333 331 324 324 324 324 322 316 318 319 321 331 339 341 338 339 338 338 336 336 333 332 331 331 331 330 329 328
326 325 324 323 323 324 324 321 322 322 321 319 320 318 321 323 321 321 320 321 321 321 320 320 322 317 317 316 315 315 315 313 313 316 315 313 312 312 311 312 320 320 327 332 332 335 336 335 334 334 333 333 335 334 331 335 333 330 327 326 323 323 322 319 314 314 317 324 326 332 338 340 340 338 337 338 338 336 335 334 334 333 332 331 330
325 324 325 323 323 323 324 323 323 324 323 323 322 320 320 320 322 322 321 321 321 320 318 317 316 319 317 317 318 319 316 313 314 316 313 312 312 308 307 308 310 311 324 329 331 328 330 332 333 333 333 333 333 335 337 331 331 325 327 324 322 321 320 320 315 314 312 317 322 326 332 336 338 339 339 338 338 337 337 336 336 335 334 333 332
324 323 324 326 325 324 323 322 322 322 322 319 318 320 320 320 319 318 318 318 317 318 316 316 316 315 316 317 315 315 314 316 316 315 316 316 314 309 310 309 307 307 308 311 319 327 327 326 330 332 332 331 332 331 331 334 333 327 321 324 321 320 318 318 316 314 313 312 315 322 327 333 336 338 338 338 337 337 337 336 330 325 326 327 329
323 324 324 325 325 326 325 323 322 322 323 323 322 322 323 316 319 319 319 320 320 318 318 317 316 317 316 315 314 314 316 317 315 317 315 313 311 310 309 310 309 307 308 307 309 307 310 315 319 320 323 329 331 329 331 333 332 323 321 329 324 318 317 317 316 313 310 309 309 315 319 323 329 334 336 337 336 332 329 324 321 321 319 319 319
322 324 323 326 326 325 325 323 323 323 322 322 323 321 321 318 319 320 319 319 317 317 316 316 316 315 315 315 318 313 315 311 315 314 312 312 311 311 309 306 306 308 308 309 309 308 309 312 315 316 319 327 328 329 331 329 327 323 321 327 333 318 316 316 315 314 310 309 307 308 311 314 316 319 321 322 321 319 319 321 322 318 318 318 318
323 324 323 326 324 324 323 323 323 322 322 321 321 320 321 319 318 319 317 319 320 319 317 317 317 315 314 315 316 312 312 313 314 313 313 314 314 313 310 309 305 302 305 305 308 309 312 309 312 313 314 320 326 326 327 328 329 321 321 330 329 326 315 314 315 314 312 311 310 308 308 308 310 312 313 314 318 319 320 321 319 316 315 318 319
324 324 322 325 324 324 321 322 323 322 322 321 321 321 321 320 319 319 318 319 317 315 317 316 316 315 316 315 315 311 311 315 314 314 314 314 314 313 313 310 310 305 302 302 305 306 309 311 307 310 315 316 317 322 322 323 320 322 326 328 325 325 321 314 313 312 312 311 308 308 307 308 309 310 313 314 316 317 318 316 317 315 315 317 318
325 324 322 324 324 323 322 321 322 323 322 321 321 320 321 320 319 319 318 318 317 317 316 314 315 315 314 313 314 312 312 315 315 316 317 314 313 314 312 312 311 307 306 303 303 306 307 311 312 310 313 313 314 316 317 314 316 315 318 319 319 319 315 314 313 311 312 311 308 307 307 307 308 310 312 312 313 315 314 313 313 314 314 316 316
325 324 322 323 323 322 322 321 320 320 321 321 321 319 319 319 318 318 318 318 317 316 316 316 316 316 314 314 312 313 312 312 313 317 315 315 313 310 310 311 313 311 309 307 302 307 311 308 310 312 311 312 313 314 318 318 316 314 315 316 316 314 314 315 311 312 311 311 309 308 307 308 308 308 309 312 313 313 313 314 313 313 315 315 313
327 324 322 322 322 321 321 321 320 319 319 319 319 318 319 318 317 318 316 318 315 314 313 315 314 316 313 314 312 311 312 311 311 312 313 313 315 312 311 312 310 312 311 308 304 304 310 310 310 311 312 311 312 311 311 313 314 314 314 316 318 315 317 319 313 312 313 311 311 309 309 309 308 308 308 308 308 310 310 310 313 313 312 311 311
326 325 322 321 321 321 320 320 319 319 318 318 318 317 316 317 315 317 315 314 314 314 314 313 313 313 312 311 311 313 313 312 311 310 309 310 312 312 311 310 309 310 307 306 304 304 307 311 310 309 310 311 310 310 309 310 311 314 313 313 314 314 314 315 317 312 310 310 309 309 309 309 307 307 306 305 306 307 308 308 310 311 309 307 308
324 325 323 322 322 321 319 319 319 319 318 317 317 317 316 316 315 319 314 313 313 313 312 311 312 314 312 311 310 312 310 309 310 308 307 306 306 305 307 310 306 308 308 307 304 303 302 306 307 309 308 309 307 309 308 310 310 311 310 310 311 312 312 315 315 317 311 309 308 307 308 308 308 307 305 304 304 305 306 306 305 304 307 306 305
327 324 324 323 322 321 320 320 319 319 318 317 317 317 316 316 314 316 315 313 312 313 311 312 310 310 311 312 311 312 314 311 310 310 311 308 307 306 307 307 307 308 307 307 306 304 303 304 307 306 307 309 309 308 308 309 309 309 308 308 309 311 312 311 311 313 309 307 306 305 305 306 307 307 305 304 303 303 303 304 304 304 303 304 304
325 327 327 323 322 321 320 319 319 318 318 318 317 317 316 315 315 314 313 313 313 313 311 310 309 310 310 311 310 311 310 309 310 309 308 309 309 307 304 304 305 305 307 308 309 305 305 304 306 306 307 306 307 308 309 309 308 307 307 307 308 309 309 311 311 311 312 309 310 308 308 308 306 305 304 303 304 304 303 302 303 303 302 303 303
327 324 322 322 321 320 321 320 319 319 319 318 317 317 317 317 316 315 313 312 313 312 312 312 314 310 311 309 310 310 309 307 308 308 309 307 306 306 305 304 304 306 306 306 305 304 302 301 302 304 305 306 307 307 307 306 306 307 308 307 307 307 307 309 310 311 309 307 308 308 306 306 306 306 306 306 305 304 303 303 303 303 304 304 304
321 321 319 318 319 319 319 320 320 319 319 318 317 317 316 316 316 315 314 313 313 312 311 312 310 310 310 310 311 308 308 308 307 308 307 307 307 306 305 305 305 305 305 305 305 304 304 302 302 302 303 303 303 304 306 306 306 305 305 307 307 307 307 307 309 311 313 315 319 320 311 307 306 306 307 307 305 303 303 304 303 304 304 303 303
322 321 319 321 321 320 320 319 319 320 320 319 318 317 317 316 315 315 314 313 313 312 312 310 310 310 309 309 309 309 307 307 307 307 306 306 306 304 304 303 302 302 301 302 302 301 302 301 302 302 302 304 304 302 304 305 305 304 303 303 304 306 309 309 310 311 311 311 308 304 307 309 313 314 309 305 305 306 305 304 304 304 304 303 303
322 321 322 322 320 319 320 320 320 320 320 320 319 318 318 317 315 314 314 313 311 312 312 311 311 309 309 309 309 308 308 305 302 300 301 301 301 299 299 300 300 300 299 300 300 300 299 300 299 299 300 301 301 303 305 304 303 303 305 307 303 303 305 307 307 306 307 308 307 309 308 308 306 307 307 308 307 306 306 305 305 305 305 304 302
320 320 321 321 320 320 320 321 321 321 319 318 320 318 317 316 316 314 313 312 312 311 310 310 309 309 308 308 307 307 304 302 300 300 300 300 298 296 299 299 299 299 298 298 299 298 298 298 298 300 298 298 299 300 300 300 300 300 304 304 303 303 304 304 305 308 309 308 308 308 308 309 308 309 310 314 314 309 308 306 308 307 305 303 302
320 319 319 320 319 319 319 320 320 320 319 319 315 310 311 316 315 314 314 313 311 311 309 308 308 307 308 307 309 307 304 301 298 295 293 294 297 300 298 297 297 297 296 295 295 295 296 295 295 296 295 296 296 298 299 300 302 303 302 302 301 302 302 302 303 306 309 308 307 306 308 312 312 312 311 310 313 315 315 313 311 311 308 303 302
321 320 319 319 319 318 318 316 315 316 317 318 307 301 301 306 314 314 312 312 311 310 308 307 305 305 306 305 305 302 301 300 299 294 294 293 293 294 295 296 298 298 296 295 294 294 294 294 295 295 294 295 296 299 299 300 301 302 301 301 301 301 300 299 298 301 305 305 305 305 305 308 310 308 308 310 311 314 319 317 309 307 307 305 303
323 323 322 321 321 320 320 317 316 315 318 309 301 298 299 301 307 314 313 311 310 309 307 307 306 305 305 305 306 306 304 303 302 299 295 294 293 293 292 292 292 292 294 295 294 293 294 293 293 293 294 294 295 296 296 297 299 298 299 299 299 299 299 298 298 298 303 307 304 302 302 306 308 307 307 309 310 311 313 311 309 306 305 305 303
322 320 320 321 321 321 320 317 316 318 313 296 297 297 297 299 301 307 309 309 308 308 307 307 306 305 305 306 306 306 305 306 305 302 300 299 295 293 293 293 293 292 290 290 292 296 296 294 293 293 294 294 294 296 298 298 298 297 298 297 298 298 298 297 298 299 301 305 302 300 299 302 304 303 304 307 308 310 312 307 307 305 306 304 304
319 319 320 320 321 321 320 319 318 316 306 296 295 296 296 296 298 303 308 308 306 306 307 306 308 308 306 305 303 303 303 302 301 301 301 302 301 298 296 295 296 297 293 291 291 291 293 295 295 294 296 297 295 296 299 299 298 296 295 295 295 295 295 295 297 298 300 303 300 298 297 298 301 301 300 303 306 308 309 306 304 304 303 304 304
317 316 317 317 319 319 319 319 316 308 306 294 294 294 294 294 296 299 308 309 306 307 307 307 305 306 305 305 303 302 301 302 304 303 302 301 299 299 298 297 296 296 297 297 297 295 295 295 294 295 296 298 298 298 299 299 297 295 296 294 294 294 295 296 296 297 298 301 301 299 295 297 299 299 299 301 304 304 305 303 304 303 303 303 303
317 317 317 318 317 318 319 318 309 306 301 292 293 293 292 293 296 302 305 304 304 304 304 306 305 304 305 303 302 301 301 301 296 294 297 300 298 297 296 295 295 295 297 298 296 296 298 299 298 298 298 299 298 299 298 295 294 295 295 295 294 293 293 292 292 295 295 299 301 298 296 297 299 299 299 301 303 302 304 305 302 303 302 302 301
314 315 315 316 316 317 317 315 306 303 297 293 291 291 292 294 297 301 304 302 302 303 303 305 304 304 304 303 302 301 302 300 294 291 292 295 297 295 295 294 295 295 295 298 296 294 294 293 293 293 293 293 293 293 293 294 294 294 292 291 290 291 290 289 291 292 294 296 298 299 297 296 298 299 299 301 301 301 302 304 306 299 300 300 300
312 313 315 314 315 315 315 313 303 300 297 293 291 291 293 294 297 302 302 302 303 302 302 304 304 302 303 307 305 301 301 301 290 290 290 294 296 295 294 294 293 293 294 296 297 297 295 294 293 293 292 292 292 292 292 292 292 293 291 289 291 291 290 290 289 291 293 295 296 299 296 295 297 298 297 298 300 301 303 304 307 300 297 297 297
311 313 313 312 313 311 306 303 301 299 295 292 291 290 291 292 298 303 302 300 300 300 301 302 302 303 303 303 301 298 296 291 288 289 288 292 294 294 294 293 292 292 293 294 293 293 292 292 292 293 293 294 295 295 296 295 293 294 293 292 292 291 290 290 290 291 290 292 296 299 295 295 295 297 296 296 295 299 302 304 305 303 301 300 297
Wind_Speed
2 2 2 1 2 4 5 5 5 2 2 2 3 4 4 4 5 6 6 6 4 3 4 4 3 3 3 5 1 2 2 3 1 7 7 7 6 9 14 12 10 8 11 13 11 10 10 9 9 9 8 8 7 5 5 6 6 7 1 5 7 9 10 9 7 7 7 7 6 7 7 8 8 9 9 9 9 9 10 10 10 10 11 11 11
2 2 2 2 1 4 3 3 2 2 3 4 3 3 4 5 8 6 7 5 4 4 4 5 5 3 3 4 1 3 2 4 2 2 8 7 7 7 12 12 10 7 7 12 12 12 10 10 10 10 9 9 8 7 5 5 6 6 3 7 5 7 10 10 9 7 7 7 6 6 7 7 8 8 8 8 9 9 9 9 9 10 10 10 10
3 1 3 2 4 3 1 1 2 1 3 2 3 4 4 2 1 3 5 1 3 4 4 3 5 5 4 4 3 5 3 5 3 2 5 7 7 7 8 13 11 9 7 7 12 13 12 11 10 11 9 10 9 8 8 7 8 7 6 5 4 5 8 11 10 9 8 7 7 6 6 7 7 8 8 8 7 8 8 9 9 9 9 9 10
3 1 2 3 4 3 5 5 5 5 4 3 2 4 4 4 8 1 2 3 3 5 4 2 3 5 7 6 6 6 4 4 3 4 3 8 7 6 7 8 11 11 9 6 6 11 12 11 11 11 10 10 10 9 9 9 8 8 7 7 6 4 5 10 10 9 8 8 7 6 7 6 7 7 7 8 8 8 8 8 9 8 9 9 9
6 2 2 1 3 5 5 4 3 2 2 3 3 4 3 2 2 2 2 2 2 4 6 1 6 6 3 6 5 4 5 4 4 3 4 7 7 7 7 7 8 11 11 10 7 5 9 11 11 11 10 10 9 10 10 10 9 9 9 8 7 5 6 8 11 10 9 8 8 7 7 7 7 7 7 7 8 8 8 8 8 8 8 9 9
7 5 2 1 3 3 1 1 1 1 1 2 2 4 2 0 3 2 0 1 2 3 4 3 4 5 4 6 1 1 2 4 6 4 4 5 8 8 8 8 7 7 7 11 11 9 7 8 11 11 12 11 10 10 9 10 10 10 10 9 9 8 7 8 9 11 10 9 8 8 7 7 7 7 7 7 7 7 7 7 7 7 8 8 9
1 4 8 8 6 4 1 1 1 3 4 3 2 2 2 1 1 1 0 1 3 2 6 5 3 5 2 2 5 4 3 4 2 3 4 3 4 8 8 8 7 7 6 6 9 11 10 7 9 11 12 11 11 9 10 10 11 10 10 9 10 9 9 8 8 10 11 10 9 8 8 7 7 7 7 7 7 7 7 7 7 8 7 8 8
3 5 3 3 3 3 4 4 3 5 5 5 3 3 1 2 2 2 2 2 4 4 5 4 4 4 5 5 4 5 5 4 2 3 3 5 3 3 7 7 8 7 8 7 6 8 12 11 10 10 11 12 12 11 11 11 12 12 10 9 11 10 9 9 9 10 11 11 11 9 8 7 7 7 7 7 7 7 7 7 8 7 7 7 8
7 6 1 3 1 2 3 5 3 2 3 4 2 1 3 1 1 3 1 1 7 2 2 3 4 2 6 7 7 5 5 3 5 4 5 4 3 6 3 7 9 9 8 7 7 7 12 14 13 12 11 11 11 12 12 11 13 13 12 11 12 12 11 11 11 10 11 11 11 10 8 8 7 7 7 7 7 7 7 7 7 7 7 7 7
1 5 5 3 1 1 3 3 2 2 2 0 1 0 1 1 1 2 4 2 1 5 6 6 3 1 3 3 7 5 6 7 6 6 5 4 3 2 3 5 7 9 8 7 8 8 8 13 15 14 12 10 10 11 13 12 12 12 13 12 12 12 12 12 12 12 10 12 11 10 10 8 8 7 8 7 7 7 7 7 7 7 7 6 6
2 3 4 3 3 2 3 3 4 3 2 2 2 2 2 1 1 1 2 2 4 2 3 6 7 9 7 1 4 4 5 6 7 6 6 8 7 5 5 3 5 4 6 8 9 9 8 8 8 7 9 12 11 11 13 13 13 12 13 14 13 12 13 12 12 13 12 11 13 11 11 10 10 9 9 9 8 8 7 7 7 7 6 6 6
5 4 3 4 4 3 1 1 2 3 5 1 1 1 2 1 0 1 1 1 1 1 2 4 1 5 4 2 2 1 3 4 7 8 5 5 6 6 7 2 2 3 3 4 5 6 9 8 7 7 7 10 14 12 13 12 11 12 13 14 13 14 14 13 13 13 14 12 13 12 10 12 13 11 10 10 10 9 9 8 8 7 7 7 6
5 2 4 5 4 4 5 4 1 4 1 3 2 2 2 3 3 3 2 1 1 1 4 5 3 2 3 4 1 1 1 3 6 7 7 4 3 4 5 7 7 3 3 3 4 3 8 8 8 7 7 7 11 15 15 13 12 12 14 14 14 15 14 14 14 14 15 14 13 13 11 13 14 13 13 12 11 11 10 10 9 8 8 8 8
2 2 4 3 3 5 5 6 5 4 2 1 3 4 3 2 2 2 3 1 1 3 2 3 1 3 1 1 0 1 2 5 5 6 7 4 2 3 3 4 5 7 9 9 6 4 6 7 7 8 9 8 9 9 10 11 12 13 13 14 16 15 15 15 16 15 14 15 14 13 12 13 14 15 14 13 12 12 11 11 11 10 10 9 9
3 1 1 2 3 2 3 6 6 3 2 2 2 2 1 1 2 2 2 2 3 2 3 4 2 2 1 0 0 1 0 1 4 6 6 4 2 2 3 3 5 3 3 4 5 8 8 1 5 8 9 9 8 9 9 10 11 15 15 14 15 15 15 14 15 16 15 14 14 14 13 14 14 15 15 14 13 13 12 12 12 12 11 10 10
5 1 4 2 1 1 5 4 6 4 3 2 1 2 3 3 1 2 1 2 2 1 0 0 0 2 1 1 0 0 0 1 0 1 0 1 0 1 3 4 4 5 4 4 4 4 3 4 7 8 6 5 7 8 8 8 14 16 17 16 15 15 16 16 14 16 15 15 14 14 12 15 16 16 16 15 14 14 14 13 14 13 13 12 12
3 4 4 3 4 4 4 3 3 4 5 4 4 4 6 5 3 1 3 0 2 1 1 1 2 1 1 1 1 1 1 1 1 0 1 1 2 1 1 1 1 0 1 1 1 2 3 4 4 4 6 10 1 7 7 9 9 10 13 17 18 16 15 15 15 15 15 16 16 17 15 15 16 16 16 16 15 15 15 15 14 14 14 13 13
4 4 4 4 3 2 4 3 4 2 2 2 3 4 5 5 4 4 3 2 3 1 1 0 0 0 1 2 1 0 2 1 1 1 2 1 0 1 0 0 0 1 0 0 0 1 3 3 4 4 2 2 8 8 4 6 7 8 8 12 18 18 18 16 16 16 16 17 18 18 17 17 17 16 16 16 16 15 16 15 15 15 15 14 14
3 3 3 3 3 4 3 3 3 4 3 3 6 5 4 5 5 5 4 5 3 1 2 2 2 0 0 3 2 0 1 1 1 1 1 0 1 2 1 2 1 2 1 1 1 2 1 1 2 4 4 2 1 2 8 6 8 12 14 14 17 18 17 17 16 17 18 18 17 17 18 16 17 16 16 16 17 17 17 16 17 16 16 16 15
2 2 3 4 3 3 5 6 6 3 5 7 5 5 4 4 5 3 4 4 5 5 2 2 2 0 1 1 1 1 1 2 2 2 2 3 2 2 2 3 3 3 2 3 2 1 1 1 1 1 3 1 1 1 2 5 11 7 11 16 18 19 19 17 17 16 15 17 18 17 17 16 18 16 16 16 17 17 18 18 18 17 17 17 16
3 3 3 3 3 4 5 5 6 6 6 6 5 5 5 4 5 5 4 4 3 2 3 3 4 3 3 3 3 2 0 1 4 2 2 1 3 2 2 2 2 3 4 4 4 2 4 4 2 1 3 6 5 3 3 1 3 10 5 11 16 19 19 19 18 17 15 13 14 17 17 15 16 17 17 18 16 17 18 18 18 18 18 18 17
4 4 4 4 3 4 4 4 3 4 3 3 4 4 3 4 4 5 4 5 3 5 4 3 4 3 2 1 0 1 3 2 1 1 2 5 3 3 2 3 3 3 5 5 4 4 3 3 2 4 5 6 4 3 3 3 2 4 10 7 8 12 16 17 17 15 14 14 13 13 15 17 17 16 18 18 19 18 18 19 19 19 19 19 18
3 3 4 3 4 3 3 3 3 4 5 4 4 4 3 3 4 4 4 4 4 4 4 5 3 4 4 5 4 3 2 3 4 2 2 2 4 4 6 3 4 5 3 5 6 6 7 6 6 7 7 6 5 5 4 3 4 7 10 17 7 10 10 11 12 12 12 12 10 10 12 13 15 15 16 18 19 20 20 22 22 21 20 20 20
3 3 2 3 3 2 2 3 3 3 3 3 3 3 4 4 4 3 4 5 4 5 5 5 6 3 4 4 2 4 6 5 4 4 4 3 3 4 5 6 6 6 2 2 3 5 7 8 9 9 9 6 5 1 6 6 9 7 4 6 5 5 8 9 10 11 11 11 11 10 11 12 13 13 15 18 19 20 20 21 21 21 20 20 20
2 3 2 2 2 1 2 3 3 3 3 3 4 4 4 4 4 4 4 4 4 4 4 4 4 4 4 3 5 6 5 4 4 2 1 2 3 3 3 5 4 5 5 2 3 6 8 8 8 9 8 8 5 7 8 8 3 1 5 3 3 5 7 8 10 11 11 11 11 10 10 11 12 13 14 16 17 19 20 20 19 18 19 17 18
3 3 3 3 2 1 2 3 3 3 2 3 2 1 2 4 3 4 3 3 4 4 4 4 4 4 4 5 3 5 2 4 2 2 2 4 4 3 4 4 3 5 5 3 4 4 3 5 8 7 9 8 8 5 5 4 5 4 3 3 5 8 9 10 12 13 13 13 12 11 11 10 10 11 12 13 13 12 16 16 16 16 17 17 17
5 4 4 2 3 2 2 2 2 2 2 1 2 1 3 4 4 3 4 3 4 4 3 3 3 3 3 3 2 5 5 5 3 5 4 5 3 3 4 5 4 4 4 6 6 5 6 7 6 6 7 9 8 7 3 5 7 10 8 6 5 11 12 12 11 11 11 12 12 13 12 12 11 11 11 10 10 8 7 10 15 17 17 18 18
5 5 4 3 4 3 3 2 2 2 1 1 2 2 1 4 3 3 3 3 3 4 4 3 3 3 2 3 3 4 4 2 3 5 4 3 4 4 5 4 4 5 5 5 5 6 10 8 6 9 7 7 6 8 11 6 3 6 6 4 3 4 11 12 11 10 11 12 12 12 13 13 13 13 13 12 12 12 12 10 10 13 17 19 18
5 5 4 3 4 3 3 3 2 1 1 1 1 2 1 2 3 2 3 3 4 4 3 3 3 3 2 2 2 5 3 3 4 3 2 2 3 3 3 3 3 2 3 4 5 4 7 8 4 5 10 9 7 6 4 4 6 5 1 3 2 3 3 9 9 10 10 11 12 13 14 14 13 13 13 13 13 13 14 13 13 12 14 17 19
5 5 4 3 3 4 3 4 3 2 3 2 1 2 0 1 2 2 3 3 3 2 2 4 3 3 2 2 3 5 2 2 2 0 1 1 2 1 1 1 1 2 3 4 4 3 5 6 6 7 8 8 7 5 4 4 3 5 1 2 3 3 6 5 8 11 12 12 12 13 14 15 15 14 13 13 13 14 14 15 15 15 14 16 18
5 4 4 3 4 4 4 4 4 4 3 3 2 3 2 3 1 2 2 1 2 3 2 2 2 2 1 2 3 3 3 3 2 1 1 1 2 3 3 3 2 2 2 2 3 2 3 5 5 7 7 6 5 4 4 4 6 6 4 4 3 6 10 6 9 10 12 12 13 14 15 15 15 14 13 13 14 14 14 14 15 15 15 15 16
4 6 4 3 4 4 4 4 5 4 4 3 3 4 3 3 2 2 3 3 3 3 3 3 3 3 3 3 2 2 3 3 3 4 1 1 2 0 2 2 2 0 0 2 3 5 3 3 4 5 6 7 7 6 5 4 4 6 4 3 3 6 5 4 9 13 14 15 16 16 16 15 14 14 13 13 13 14 14 14 15 15 15 15 14
3 5 5 5 5 5 5 5 5 5 5 4 4 4 4 3 4 3 4 3 3 3 3 2 1 0 2 2 2 3 1 1 3 4 4 2 2 4 4 3 3 2 2 2 3 5 3 3 4 5 6 6 6 4 5 5 4 4 4 4 6 6 7 7 8 11 13 14 16 17 16 16 15 14 13 13 14 14 14 14 15 15 15 15 15
4 4 5 4 5 6 6 6 5 6 5 5 5 4 5 4 5 3 5 3 3 3 4 3 3 2 1 1 3 3 4 3 2 3 4 4 5 4 2 3 3 3 3 3 2 3 5 3 4 4 6 6 7 4 4 5 4 4 5 5 5 5 4 6 6 7 14 15 17 18 18 18 15 13 14 14 14 14 15 15 15 15 15 15 15
2 4 4 4 4 5 5 5 6 6 6 6 5 5 5 5 5 4 4 4 4 3 3 3 3 3 2 1 2 2 2 0 1 2 2 3 3 4 4 3 3 2 2 2 2 3 5 5 3 5 4 3 3 6 7 7 7 6 6 5 5 6 6 5 6 6 9 7 7 11 13 14 14 14 12 11 11 12 13 13 14 14 15 15 15
2 1 3 4 5 5 5 6 6 5 6 5 6 6 6 5 5 5 5 4 4 4 4 3 3 5 3 3 2 1 2 2 0 1 2 2 1 2 4 4 4 4 3 2 2 3 3 4 2 4 4 5 5 6 7 7 7 6 5 6 5 6 5 5 5 5 2 5 7 6 7 9 9 9 10 12 14 14 14 14 14 14 15 15 15
1 4 4 4 5 6 5 6 7 6 6 6 6 6 5 4 4 4 4 4 4 4 4 4 2 3 3 2 1 1 2 0 0 1 1 4 3 3 3 3 4 4 4 4 5 5 5 6 6 4 4 5 5 5 5 7 6 6 6 6 6 6 5 5 6 7 11 11 7 9 10 12 14 15 15 14 13 13 14 14 15 15 16 16 16
1 3 4 5 5 7 8 8 8 8 7 7 7 7 6 4 4 4 4 4 4 4 4 3 4 2 1 2 2 1 1 1 0 2 1 1 2 2 3 3 4 4 3 4 4 4 4 5 4 6 4 6 6 5 5 6 7 7 5 5 4 4 5 7 7 7 5 4 2 2 5 7 10 12 12 13 15 16 16 16 15 16 16 16 16
5 5 4 1 5 10 10 8 8 7 6 5 6 6 7 6 6 5 5 4 4 3 3 3 3 4 3 2 1 1 1 0 0 1 3 3 2 3 3 3 4 4 5 4 5 5 5 5 5 5 6 4 4 5 4 6 7 6 6 6 5 4 3 3 6 6 6 7 9 12 10 7 11 11 13 16 17 18 18 16 16 17 16 17 16
6 7 5 4 9 10 8 5 5 8 9 7 7 6 7 8 6 6 6 4 4 3 3 3 3 3 3 2 2 2 1 4 4 3 3 2 2 2 3 3 3 4 4 4 4 4 5 5 5 5 4 5 5 5 6 4 4 4 5 3 5 6 7 6 6 8 8 9 9 8 9 12 9 12 17 18 20 20 18 16 17 16 17 17 16
7 6 5 5 7 10 8 4 3 4 6 9 8 10 7 7 6 7 7 6 4 4 3 2 2 2 2 2 2 2 7 7 7 5 4 2 0 1 2 3 4 4 4 4 5 5 5 5 6 5 5 6 5 6 6 5 5 5 5 6 7 6 6 6 5 5 5 6 7 8 8 7 9 9 7 4 8 13 14 16 13 17 17 16 16
7 6 6 7 8 7 5 3 2 2 4 7 11 19 14 8 6 6 6 5 5 4 4 3 3 3 2 3 3 10 9 8 7 6 5 4 3 2 1 1 1 2 2 3 4 4 5 6 6 5 6 6 5 5 5 5 6 6 7 5 6 6 5 6 5 5 4 4 5 6 6 5 5 6 6 7 5 9 9 9 9 12 15 19 18
7 8 8 9 9 7 7 6 7 6 5 6 12 12 15 14 8 7 7 5 4 4 4 3 4 3 3 3 4 7 7 5 4 7 6 7 7 7 7 5 3 1 1 3 3 3 5 5 5 6 6 7 6 5 5 6 5 6 7 8 7 7 5 5 6 4 3 6 6 6 6 6 8 8 9 9 8 7 5 8 11 15 17 16 17
9 7 8 8 8 8 8 8 8 8 7 8 9 8 11 11 9 6 6 5 4 3 4 4 4 4 4 4 3 4 3 3 3 5 7 9 10 10 9 8 8 8 7 5 4 4 4 5 6 6 6 7 7 6 8 7 6 8 8 7 7 7 8 7 6 7 3 5 6 6 7 6 7 8 8 8 8 7 9 10 12 15 16 17 15
2 5 5 4 4 4 7 10 11 9 5 8 12 11 10 13 14 9 6 4 4 3 3 3 3 3 4 3 2 3 4 10 6 4 5 7 11 11 10 9 8 9 10 12 12 9 5 6 6 8 6 6 7 6 4 6 7 8 6 6 6 7 8 9 7 8 9 11 10 7 9 4 4 9 10 9 8 9 9 12 15 11 16 17 17
3 3 3 3 3 3 3 4 6 5 6 9 12 12 12 13 14 10 6 6 4 3 3 4 2 1 2 1 1 2 2 4 3 3 4 4 4 5 5 5 6 9 12 15 16 16 13 9 8 9 6 5 8 8 7 7 7 3 4 6 5 8 9 9 10 11 10 9 9 8 11 7 5 9 11 10 9 9 8 12 19 17 13 15 17
2 3 4 4 3 3 3 3 3 5 5 9 12 13 13 13 13 11 3 3 5 2 2 3 2 0 0 1 1 1 1 1 2 1 1 0 0 0 0 1 3 4 4 4 6 8 9 8 9 10 10 9 8 8 9 4 1 2 3 5 7 8 10 11 12 10 11 8 9 7 12 6 3 9 10 8 8 10 9 12 12 13 12 14 17
3 2 3 2 4 3 3 2 7 6 5 8 11 13 13 13 12 7 4 4 3 2 2 1 1 2 1 1 2 3 3 3 5 6 3 1 1 1 2 3 4 4 4 6 9 8 6 6 7 9 9 10 11 8 5 6 8 7 7 7 6 7 9 11 12 8 9 6 7 8 9 9 4 8 9 7 8 9 9 9 8 9 8 6 5
3 2 3 2 1 2 3 2 7 6 6 5 10 13 13 13 9 6 4 4 2 1 1 1 2 2 3 3 3 4 4 1 7 8 7 5 2 3 4 4 4 4 5 5 8 10 11 12 14 15 15 16 17 18 19 20 14 7 5 6 7 5 9 12 12 10 10 6 7 8 10 10 4 7 8 5 6 8 8 10 3 2 3 5 7
3 3 3 3 2 3 3 2 9 8 6 5 9 13 14 12 8 5 3 3 2 2 3 3 3 4 5 11 5 3 4 2 9 5 4 2 2 3 3 5 5 5 5 4 4 5 9 10 10 10 10 11 12 14 15 15 15 10 7 10 6 5 9 8 12 9 9 7 6 5 9 9 7 7 9 9 9 6 7 9 4 3 4 4 6
4 3 2 3 2 6 8 9 9 9 7 5 7 12 13 11 7 2 2 3 4 4 4 4 4 3 2 4 9 3 8 9 10 9 8 6 2 3 4 4 6 6 6 5 5 5 5 6 7 8 9 9 8 7 7 11 13 12 8 9 7 8 9 9 9 10 11 7 5 7 11 8 7 5 5 7 7 6 5 7 4 5 3 4 4
Wind_Direction
179 174 145 165 83 73 123 176 192 140 206 141 195 187 214 225 224 214 237 247 227 228 175 207 204 241 260 280 255 230 105 44 334 125 127 135 138 153 148 149 162 174 169 157 160 166 172 170 166 161 167 170 179 178 179 158 180 170 257 141 150 145 139 135 131 129 126 122 124 117 112 113 109 109 105 104 101 100 96 91 86 83 83 83 83
183 157 142 134 73 70 86 163 183 151 212 181 177 202 220 220 218 214 224 221 231 218 223 186 179 228 254 262 226 283 173 149 192 202 133 141 141 150 154 157 163 178 182 166 166 167 172 169 175 164 172 172 174 174 187 176 184 182 175 136 124 157 149 145 142 138 140 136 133 133 127 122 120 117 114 111 106 102 101 100 98 95 92 94 94
134 119 143 137 79 89 120 139 148 198 220 201 196 208 230 261 311 241 304 330 326 305 198 241 178 184 219 235 227 205 225 157 171 173 144 135 139 153 161 163 167 170 185 179 173 171 171 174 175 172 177 178 178 178 173 187 180 201 190 166 129 151 165 152 146 146 149 152 144 142 139 133 131 127 125 121 117 111 108 102 103 103 99 93 90
95 65 140 114 115 136 212 195 173 186 209 201 221 237 224 197 215 132 346 4 331 325 306 294 287 181 196 209 226 172 211 156 185 167 159 130 141 156 157 170 173 173 180 187 193 180 176 177 178 178 181 189 180 185 180 186 187 188 196 204 156 173 186 166 152 151 157 158 157 153 149 145 139 137 133 132 128 124 119 116 108 106 103 100 95
131 148 49 107 145 171 200 240 184 186 174 218 242 252 182 224 98 68 53 350 352 319 311 10 303 298 269 208 196 215 189 162 180 177 161 145 154 157 165 170 176 178 183 184 189 199 189 181 184 181 185 190 190 189 186 187 188 187 199 195 184 186 193 176 161 158 162 165 168 166 162 160 150 145 143 136 136 133 126 124 123 114 113 107 104
130 140 271 60 260 237 224 231 314 177 222 242 253 254 116 261 86 53 164 18 295 292 299 269 226 266 293 328 242 204 166 185 165 182 178 172 171 159 168 169 168 173 184 191 188 196 206 196 189 187 186 192 194 192 188 187 189 194 197 197 196 197 195 185 177 169 165 170 176 175 173 168 162 154 152 149 143 141 141 134 130 126 117 114 108
260 143 197 184 173 182 176 68 323 43 331 293 283 282 131 196 107 146 170 196 265 314 288 277 253 240 272 332 331 348 347 346 2 186 184 195 179 162 165 161 165 166 180 179 197 196 198 204 205 193 199 192 197 196 190 191 190 197 201 200 197 204 204 196 196 187 174 175 179 182 182 175 170 164 159 158 153 147 146 145 140 134 129 124 122
244 146 275 318 186 160 142 138 196 170 201 266 271 280 251 156 150 204 165 236 228 197 255 283 296 340 15 354 345 345 337 331 318 335 241 181 191 223 153 158 158 170 178 176 180 195 199 199 207 209 200 202 203 195 197 194 197 199 200 200 197 200 206 204 205 197 183 181 180 188 188 184 179 173 167 166 165 161 154 151 147 144 141 136 133
186 147 214 257 130 133 128 132 184 222 169 182 227 324 2 2 176 227 93 351 307 306 205 260 317 350 44 4 336 349 329 327 332 321 334 339 208 192 186 155 166 175 174 171 174 187 197 198 203 209 209 207 207 202 204 202 204 193 196 196 195 199 202 207 206 200 195 189 188 187 188 188 185 182 175 172 174 173 165 161 157 153 150 145 144
36 107 123 254 263 342 90 137 151 163 155 262 273 9 71 35 347 48 85 169 304 13 355 331 315 314 85 7 343 351 350 335 347 337 325 293 313 306 206 179 158 172 178 174 175 183 189 199 200 203 208 213 217 201 208 207 211 196 197 201 199 199 200 204 205 206 204 203 192 191 189 188 187 192 183 182 182 182 178 172 163 163 158 158 147
108 102 129 133 120 184 205 171 181 169 117 163 223 191 130 75 66 20 48 63 27 34 4 32 2 355 356 26 299 351 341 2 335 340 341 340 337 334 296 186 180 184 181 180 176 182 180 186 193 198 208 210 215 212 209 213 215 211 203 205 207 206 203 206 208 205 207 205 197 195 189 177 181 198 192 191 190 187 188 180 173 169 167 161 160
157 145 148 154 150 163 116 89 289 139 146 160 277 187 157 149 158 50 342 61 152 255 106 94 258 262 252 296 244 280 349 4 341 326 336 332 331 338 317 303 238 190 179 191 196 168 175 174 183 197 199 203 209 214 214 215 217 221 217 210 212 206 203 206 205 204 207 206 205 200 189 178 177 190 201 197 193 191 191 186 184 176 173 172 167
8 92 163 167 146 147 130 129 282 298 82 176 192 259 183 167 150 116 219 227 153 176 137 156 174 250 215 242 234 84 294 339 316 321 312 304 313 333 356 346 330 241 191 200 207 152 165 167 181 188 201 192 205 212 212 215 218 220 220 220 217 212 207 206 205 204 202 209 206 205 195 181 181 185 198 200 197 192 193 190 191 185 180 179 181
30 23 4 349 131 147 150 141 152 242 229 187 215 218 200 179 164 166 177 205 223 146 130 106 188 200 156 298 263 154 161 169 247 271 299 293 321 343 3 331 339 9 4 349 330 282 170 171 177 190 197 202 193 200 209 212 218 220 222 220 225 221 214 211 208 206 204 206 209 207 189 189 186 187 196 199 199 197 195 191 192 192 187 187 186
144 99 214 53 41 70 122 150 157 153 168 152 237 215 227 166 167 182 145 192 221 224 180 164 153 108 70 92 312 68 329 227 200 219 232 284 19 339 331 326 330 19 19 5 355 348 332 336 195 200 197 211 181 192 197 201 207 214 217 221 225 229 225 221 207 205 206 205 207 210 193 192 189 190 196 198 199 199 198 194 193 194 193 191 192
1 80 87 69 299 114 83 64 97 134 108 103 34 48 41 3 285 204 182 192 222 293 319 149 137 122 163 179 134 65 49 124 132 269 7 93 282 21 5 340 360 23 25 22 11 349 344 345 355 341 305 253 162 185 185 192 207 209 213 215 220 225 229 226 221 208 211 214 210 211 197 195 192 192 196 198 203 201 200 198 194 196 195 195 195
30 26 41 30 36 30 91 100 107 122 157 167 158 178 149 170 211 196 218 173 212 126 238 206 188 273 54 104 115 142 180 152 347 359 1 14 42 27 74 349 29 335 87 57 28 34 357 348 342 345 350 326 333 179 180 195 200 209 213 214 214 216 221 229 230 225 216 214 213 211 205 196 194 194 196 204 204 203 202 200 197 197 198 198 198
43 41 35 19 357 44 31 144 121 117 102 110 133 145 137 151 144 150 159 90 263 125 113 22 63 331 25 289 320 328 130 63 54 321 296 26 92 64 308 110 217 289 257 281 181 72 30 6 345 333 340 6 348 333 253 202 199 203 209 212 212 212 216 220 227 229 230 221 217 219 216 199 196 193 197 199 204 202 203 202 198 199 201 202 202
50 52 43 32 33 7 31 21 98 118 121 78 58 46 73 94 148 162 140 144 136 170 124 146 102 254 213 284 287 351 56 109 98 335 325 335 224 245 234 263 259 261 265 210 246 84 95 323 344 351 339 360 83 340 328 298 216 201 201 202 202 210 213 217 220 227 228 231 229 223 225 213 198 196 195 195 199 202 203 202 198 200 202 203 205
73 78 90 57 26 32 19 20 2 47 79 62 54 55 48 51 45 60 101 114 121 128 149 87 77 8 22 314 317 334 79 89 101 122 147 288 294 259 238 218 210 232 234 271 264 191 232 250 162 81 261 311 42 191 127 328 321 243 203 195 195 200 207 211 216 223 229 231 234 235 226 217 211 199 194 193 194 196 198 199 201 207 207 207 206
71 62 65 65 64 46 33 33 25 23 58 58 53 49 53 44 40 44 53 53 54 109 126 153 149 139 206 234 234 203 120 146 122 153 157 170 263 242 271 208 206 230 213 201 228 192 199 235 174 174 261 243 213 179 173 140 292 308 298 205 196 197 202 205 209 215 222 230 234 235 237 229 220 201 204 200 196 196 198 200 203 210 210 212 212
42 45 52 55 41 57 59 39 36 53 77 104 107 83 66 52 47 43 34 61 46 36 39 56 65 39 2 13 347 219 156 180 132 146 273 234 255 285 231 250 286 254 204 193 196 229 207 214 222 216 224 246 217 206 178 154 116 267 294 313 226 214 203 203 206 210 217 225 232 238 240 240 235 218 199 201 201 199 199 201 203 209 214 215 216
104 55 58 63 47 39 45 66 50 26 41 56 70 97 106 105 97 70 56 60 45 43 43 29 47 57 24 28 43 41 66 33 38 14 343 11 351 333 331 287 228 250 221 186 187 191 199 202 209 214 217 220 228 195 188 120 158 233 247 259 224 212 216 204 202 209 218 226 232 238 244 250 252 244 220 202 205 207 205 210 212 213 215 217 216
106 107 80 59 61 75 68 65 39 36 46 46 81 77 70 73 63 71 66 49 43 60 43 33 16 41 45 7 35 46 51 42 13 18 27 6 341 321 304 330 338 358 37 185 237 205 202 205 206 210 214 209 202 167 95 148 228 242 252 262 256 200 193 190 195 207 213 222 228 234 240 244 249 252 247 224 212 212 212 214 218 219 219 218 218
142 115 100 126 95 43 57 76 65 39 44 71 45 48 72 75 84 78 69 72 78 72 67 49 45 34 345 21 28 44 52 43 33 357 347 334 325 318 337 348 340 322 321 289 226 216 222 217 204 210 208 196 123 123 138 159 177 14 287 178 211 191 192 191 193 203 205 211 220 228 235 237 239 243 245 246 231 223 221 218 217 215 214 211 216
133 124 142 135 148 109 63 68 82 87 75 41 32 29 118 104 76 90 94 80 75 78 78 75 50 39 9 33 14 57 31 63 1 325 7 19 7 13 346 332 333 317 306 294 286 282 245 226 207 213 198 167 158 118 104 132 137 173 230 204 195 207 203 204 203 204 205 207 211 219 225 232 238 240 241 241 244 234 225 223 218 215 214 210 213
148 131 147 167 116 125 114 111 103 86 87 117 118 84 44 75 78 71 73 70 82 85 70 70 69 55 43 1 339 67 23 23 2 34 22 33 10 6 353 343 338 320 334 336 334 329 350 356 11 30 43 80 85 98 115 200 184 184 190 207 195 206 210 211 211 208 207 211 215 216 216 219 221 228 236 243 248 256 248 230 221 212 213 215 214
146 142 151 169 139 137 130 132 137 132 118 120 181 100 50 100 110 102 110 142 147 123 125 100 80 83 58 345 35 74 49 9 31 39 35 7 8 357 352 346 354 339 341 330 338 334 8 5 352 8 20 70 96 142 173 169 165 191 209 241 257 231 219 225 219 208 207 214 220 221 221 219 219 220 225 230 235 240 241 234 227 222 216 215 217
144 141 163 173 143 156 158 145 141 152 147 184 71 98 183 110 105 118 93 62 67 64 70 104 89 62 28 22 14 80 39 6 60 37 39 18 3 347 336 354 356 334 334 338 329 347 345 343 339 349 14 23 13 25 45 111 148 177 245 240 276 314 268 231 229 225 219 220 221 221 222 221 219 220 223 227 229 231 235 238 232 223 222 223 217
140 144 167 168 157 169 165 146 170 168 179 186 152 110 190 105 123 134 104 105 100 97 80 69 68 67 43 29 356 75 50 360 67 232 142 121 273 279 288 302 357 4 359 332 311 322 313 331 350 350 350 4 357 1 357 348 326 357 313 337 320 308 295 244 230 229 228 227 226 227 226 223 221 218 219 222 225 226 229 235 236 231 226 220 222
141 143 172 174 166 174 182 163 171 182 183 188 177 141 213 112 162 119 112 176 145 123 95 82 92 96 73 53 3 69 47 357 272 226 78 27 18 345 353 359 348 54 333 315 310 290 15 326 326 337 335 334 347 347 334 332 317 317 317 288 279 269 273 256 233 233 233 231 230 229 228 227 226 223 221 221 225 229 232 233 237 239 236 230 221
154 156 173 191 180 179 197 180 175 184 190 178 181 170 206 142 176 148 161 214 143 147 137 188 161 145 166 179 104 52 30 344 354 15 338 208 159 201 287 278 298 273 325 280 285 288 315 301 305 316 325 332 334 318 313 307 321 350 320 301 284 279 274 252 232 230 231 230 229 229 228 227 226 226 222 222 223 228 231 233 235 238 236 233 229
180 162 178 199 193 188 204 195 188 189 185 185 182 172 198 161 189 185 153 206 178 159 136 105 117 137 34 22 132 125 115 332 4 329 300 306 226 200 204 231 242 223 198 246 274 289 299 331 337 321 316 322 308 312 312 312 310 306 317 307 301 283 277 266 264 255 243 241 242 240 236 230 225 221 218 215 218 223 226 228 232 236 238 234 229
182 184 186 205 204 197 205 203 199 190 191 192 182 187 190 180 185 190 157 198 212 158 134 189 135 107 104 320 13 71 55 16 350 319 356 350 340 335 10 17 3 10 11 354 314 309 299 318 316 323 316 303 291 299 295 309 307 301 278 274 276 277 268 264 248 242 243 237 235 238 238 233 227 219 213 212 214 217 220 223 226 230 236 237 234
219 190 195 201 220 220 212 216 210 196 194 196 183 195 196 187 190 166 174 191 206 148 156 190 182 144 162 166 210 149 133 105 334 280 306 329 342 339 347 347 331 315 286 260 285 288 293 288 284 288 280 293 312 318 311 295 285 279 274 265 263 265 268 276 282 280 269 292 279 266 260 250 232 220 211 215 221 223 225 226 225 227 230 234 234
293 284 211 201 221 227 223 220 223 213 200 198 185 199 201 200 191 169 182 191 193 154 172 185 205 144 178 163 182 156 155 184 224 22 302 309 338 2 352 335 339 325 325 321 271 259 265 298 289 305 311 311 294 290 288 293 295 292 281 272 260 261 267 263 270 292 357 313 289 243 215 213 221 224 217 216 217 221 226 227 228 227 228 230 232
10 14 8 319 262 233 233 225 223 220 211 205 192 195 207 206 190 175 187 197 186 174 183 188 147 132 149 147 224 135 121 82 168 242 17 25 1 351 335 337 324 353 353 344 336 327 316 301 296 281 285 281 287 292 297 297 296 295 305 307 312 309 307 310 311 298 300 299 244 235 213 205 208 213 217 220 220 224 227 228 228 229 228 227 227
322 214 243 257 282 273 243 238 236 227 214 201 201 191 201 204 185 182 185 200 186 190 185 172 144 164 165 161 162 121 197 149 79 39 34 1 13 338 335 336 324 314 318 321 314 306 303 296 306 307 302 300 297 280 278 275 272 276 277 277 279 284 290 288 275 273 276 317 8 293 273 272 255 242 233 224 224 227 229 229 228 228 230 230 229
253 276 269 330 310 278 265 246 240 244 239 224 210 199 187 203 190 187 178 190 185 198 180 171 165 157 161 172 161 104 91 169 123 55 47 33 26 2 351 348 340 344 338 325 323 317 305 294 288 281 286 278 283 302 303 309 303 298 301 297 291 290 302 324 327 328 325 319 317 315 299 255 228 229 230 233 232 230 230 228 228 228 228 227 226
206 208 210 195 231 256 289 313 318 297 278 263 277 244 202 205 184 184 171 185 180 193 173 176 175 140 144 151 135 158 148 69 71 64 52 36 24 353 340 336 329 329 320 316 308 300 299 295 292 296 290 292 295 276 277 282 294 308 300 329 329 325 323 322 322 321 314 309 299 292 290 292 277 239 233 232 231 231 230 230 231 230 228 226 224
216 224 203 214 233 244 245 276 344 25 11 328 293 258 227 209 184 181 169 177 174 175 170 173 158 139 154 162 161 134 106 113 104 103 103 105 31 309 327 359 359 353 341 336 327 320 312 309 304 307 307 308 301 314 319 322 313 299 309 325 306 307 302 301 291 281 289 292 290 293 295 294 287 291 287 229 230 236 240 233 234 232 230 228 224
202 219 226 223 229 233 251 260 222 179 201 219 243 258 230 210 184 164 158 168 177 175 158 182 167 164 194 169 137 121 131 130 127 118 142 169 203 225 269 340 332 342 333 321 309 308 306 303 300 307 304 296 302 310 316 310 309 311 311 302 289 288 294 282 279 267 274 288 296 291 287 283 281 295 289 282 264 220 233 224 227 227 224 224 222
197 204 214 224 222 208 196 217 239 221 223 239 253 274 230 197 168 157 150 153 177 165 158 182 161 183 198 198 144 152 139 145 146 166 188 206 210 223 235 226 230 237 292 286 284 287 290 286 291 294 289 293 298 310 308 316 318 338 340 336 322 320 308 308 296 307 327 310 302 306 305 314 322 312 311 308 306 301 243 241 235 229 234 228 224
197 196 199 211 215 201 180 194 237 243 224 208 225 229 194 168 142 146 141 141 158 160 169 177 170 182 192 203 174 151 166 164 183 186 206 217 220 223 224 233 242 242 228 227 255 275 269 275 279 282 295 294 307 321 310 315 333 342 328 321 313 311 309 301 293 286 307 342 319 320 302 326 330 319 308 303 302 303 295 277 237 230 233 234 223
257 201 209 224 232 226 177 188 208 210 173 181 181 175 160 135 133 132 124 130 146 163 158 184 194 190 186 172 168 164 192 187 192 187 187 213 228 221 223 236 248 248 250 248 245 245 252 256 265 269 263 281 287 292 307 318 331 314 325 321 336 338 333 322 317 324 330 338 329 307 296 312 332 302 296 295 301 300 300 300 301 253 237 227 219
266 269 221 214 243 244 235 169 193 168 146 175 157 148 131 122 118 114 112 128 139 169 195 187 177 99 86 112 170 188 157 165 203 206 223 231 165 201 221 231 234 241 241 245 248 246 242 249 257 264 268 284 280 284 290 297 298 324 337 313 332 316 311 300 306 300 297 304 297 302 286 286 286 283 278 278 278 282 283 292 290 282 245 231 221
252 250 222 212 216 230 238 200 140 115 162 160 144 133 122 110 102 98 89 139 143 147 117 97 108 149 189 158 233 314 329 281 214 149 210 116 102 228 215 262 272 287 286 273 240 233 243 238 239 246 254 255 260 265 271 278 312 282 282 285 289 287 288 288 284 283 288 280 280 284 279 293 267 274 274 281 279 277 283 283 296 305 272 233 220
269 282 293 219 200 216 214 168 116 138 127 155 137 123 109 102 99 84 81 96 94 104 103 129 181 191 228 210 212 230 229 238 118 122 135 225 264 265 256 254 265 271 271 268 270 274 260 234 225 231 236 239 242 250 257 273 282 287 284 282 284 287 289 286 280 290 276 284 281 277 278 278 249 269 275 276 279 282 286 279 277 281 274 251 231
249 235 251 275 261 241 227 171 123 123 129 143 132 119 112 110 106 106 100 101 97 76 162 202 198 200 221 219 219 222 226 202 146 150 170 166 216 241 256 265 265 270 269 277 277 275 273 272 274 276 274 274 272 270 271 271 266 256 275 283 276 282 277 279 278 276 273 276 268 273 281 285 262 253 272 260 263 271 273 281 257 263 201 158 145
253 237 218 242 238 239 264 134 135 132 134 140 134 117 111 107 103 104 104 118 151 177 216 211 219 222 220 218 213 216 215 190 167 162 158 135 249 266 269 276 282 279 280 287 290 285 293 307 320 315 304 295 291 289 286 282 281 277 256 262 267 275 271 272 281 277 279 270 274 300 294 283 313 308 306 302 290 260 247 256 212 142 129 107 104
260 252 248 254 234 56 60 87 102 108 110 118 125 117 109 80 57 45 99 182 174 207 214 211 203 210 251 194 206 71 63 81 84 67 37 13 334 327 322 314 293 287 291 314 321 331 337 325 310 312 307 307 305 303 297 288 271 257 240 247 255 250 261 266 273 285 280 268 260 249 259 276 282 295 307 306 287 281 264 271 193 168 153 133 130